Location: Riverton
(43.0250°N, 108.3790°W)
Time: 03:17:52
(UTC-06:00)

Amateur Radio Satellites - All Passes

Search period start: 30 July 2016 02:47
Search period end: 31 July 2016 02:47
Location: Riverton, 43.0250°N, 108.3790°W

Satellite Date Start Highest point End Downlink Frequencies (MHz)
Time Altitude Azimuth
SWISSCUBE 30 Jul 02:55:51 03:00:37 68° 258° (WSW) 03:05:25 437.505
BUGSAT 1 30 Jul 02:56:04 02:58:09 13° 298° (WNW) 03:00:13 437.445
TISAT 1 30 Jul 03:04:53 03:06:11 11° 271° (W) 03:07:30 437.305
JAS-2 30 Jul 03:05:04 03:09:20 25° 295° (WNW) 03:13:53 435.910
CUSAT 1 30 Jul 03:05:32 03:07:42 15° 95° (E) 03:09:37 437.405
GONETS M04 30 Jul 03:06:36 03:15:27 86° 264° (W) 03:24:19
Oscar 19 30 Jul 03:13:22 03:18:28 61° 288° (WNW) 03:23:34 437.125/150
ITAMSAT 1 30 Jul 03:16:14 03:20:13 22° 93° (E) 03:24:11 435.822/435.867
BEESAT 30 Jul 03:17:05 03:21:41 46° 261° (W) 03:26:18 436.000
Gurwin Techsat 1B 30 Jul 03:19:39 03:24:59 72° 103° (ESE) 03:30:17 435.225
MOZHAYETS 4 30 Jul 03:29:46 03:33:51 32° 69° (ENE) 03:37:56
Cosmos 2499 30 Jul 03:32:01 03:39:50 79° 265° (W) 03:47:03 435.465 / 435.565
AO-7 30 Jul 03:42:37 03:48:51 23° 92° (E) 03:55:00 29.400- 29.500
ITUPSAT 1 30 Jul 03:43:05 03:47:09 27° 265° (W) 03:51:14 437.325
BEESAT 3 30 Jul 03:50:57 03:54:29 31° 244° (WSW) 03:57:59 437.485
DANDE 30 Jul 03:56:22 04:00:42 27° 96° (E) 04:04:08 436.750
BEESAT 2 30 Jul 04:03:22 04:07:11 43° 242° (WSW) 04:10:58 435.950
ISS 30 Jul 04:03:23 04:05:58 22° 225° (SW) 04:08:33 145.825
KKS-1 30 Jul 04:08:06 04:12:32 74° 74° (ENE) 04:17:00 437.445
PCSat 30 Jul 04:20:06 04:25:34 81° 58° (ENE) 04:30:59 145.827
STARS 30 Jul 04:37:51 04:42:13 77° 76° (ENE) 04:46:41 437.465
CUSAT 1 30 Jul 04:46:38 04:49:35 23° 283° (WNW) 04:52:05 437.405
AIST 2 30 Jul 04:53:32 04:57:21 33° 49° (NE) 05:01:08 435.215
ITAMSAT 1 30 Jul 04:54:57 04:59:56 48° 290° (WNW) 05:04:52 435.822/435.867
CUBESAT XI-V 30 Jul 04:57:59 05:02:03 32° 69° (ENE) 05:06:08 437.345
Gurwin Techsat 1B 30 Jul 05:01:01 05:04:20 17° 300° (WNW) 05:07:38 435.225
GONETS M04 30 Jul 05:05:39 05:10:54 18° 284° (WNW) 05:16:10
MOZHAYETS 4 30 Jul 05:07:03 05:11:00 27° 265° (W) 05:14:58
HORYU 2 30 Jul 05:22:53 05:26:15 20° 94° (E) 05:29:34 437.375
O/OREOS (USA 219) 30 Jul 05:24:06 05:27:47 24° 56° (NE) 05:31:29 437.305
Cosmos 2499 30 Jul 05:28:12 05:31:23 13° 286° (WNW) 05:34:31 435.465 / 435.565
AO-7 30 Jul 05:34:04 05:42:27 80° 291° (WNW) 05:50:45 29.400- 29.500
DANDE 30 Jul 05:39:19 05:43:23 25° 284° (WNW) 05:46:39 436.750
KKS-1 30 Jul 05:48:29 05:49:36 11° 271° (W) 05:50:44 437.445
RS-15 30 Jul 05:54:18 06:04:19 37° 105° (ESE) 06:14:46 29.354- 29.394
PCSat 30 Jul 06:05:24 06:08:14 14° 257° (WSW) 06:11:04 145.827
STRAND 1 30 Jul 06:11:23 06:14:15 15° 59° (ENE) 06:17:07 437.568
STARS 30 Jul 06:18:34 06:19:08 10° 271° (W) 06:19:40 437.465
GOMX 1 30 Jul 06:19:55 06:22:21 13° 89° (E) 06:24:50 467.674
NOAA 18 30 Jul 06:23:16 06:26:31 16° 90° (E) 06:29:45 137.9125
AIST 2 30 Jul 06:32:12 06:35:43 27° 246° (WSW) 06:39:13 435.215
CUBESAT XI-V 30 Jul 06:35:33 06:39:26 26° 265° (W) 06:43:19 437.345
Cubesat XI-IV 30 Jul 06:35:42 06:39:40 21° 92° (E) 06:43:35 437.490
Cosmos 2491 30 Jul 06:42:22 06:45:06 12° 52° (NE) 06:47:50 435.465 / 435.565
LilacSat-2 30 Jul 06:51:53 06:55:05 25° 95° (E) 06:58:16 437.200
CUTE-I 30 Jul 06:57:41 07:02:28 33° 96° (E) 07:07:13 437.470
HORYU 2 30 Jul 06:58:46 07:02:57 39° 290° (WNW) 07:07:05 437.375
O/OREOS (USA 219) 30 Jul 07:03:05 07:07:18 38° 254° (WSW) 07:11:30 437.305
NOAA 15 30 Jul 07:06:29 07:11:38 51° 100° (E) 07:16:46 137.62
BRITE-PL 30 Jul 07:10:53 07:15:50 80° 103° (ESE) 07:21:10 437.365/2234.400
SO-50 30 Jul 07:22:57 07:27:18 33° 115° (ESE) 07:31:39 436.795
AO-7 30 Jul 07:28:21 07:33:59 21° 312° (NW) 07:39:36 29.400- 29.500
DOVE 4 30 Jul 07:32:02 07:36:39 31° 95° (E) 07:41:19 437.250
STRAND 1 30 Jul 07:47:38 07:52:47 77° 256° (WSW) 07:57:58 437.568
GOMX 1 30 Jul 07:55:45 08:00:55 81° 284° (WNW) 08:06:19 467.674
PRISM 30 Jul 07:59:25 08:02:11 18° 65° (ENE) 08:04:57 437.425
NOAA 18 30 Jul 08:02:12 08:07:44 73° 287° (WNW) 08:13:13 137.9125
RS-15 30 Jul 08:04:26 08:15:57 70° 309° (NW) 08:28:08 29.354- 29.394
YUBILEINY 30 Jul 08:12:11 08:16:42 15° 74° (ENE) 08:21:13 435.215
Cubesat XI-IV 30 Jul 08:14:51 08:20:03 53° 289° (WNW) 08:25:12 437.490
SEEDS 30 Jul 08:26:04 08:28:24 15° 91° (E) 08:30:44 437.485
LilacSat-2 30 Jul 08:26:09 08:29:19 24° 291° (WNW) 08:32:27 437.200
COMPASS 1 30 Jul 08:32:10 08:33:33 11° 89° (E) 08:34:57 437.405
Cosmos 2491 30 Jul 08:35:37 08:44:15 57° 77° (ENE) 08:52:51 435.465 / 435.565
CUTE-I 30 Jul 08:37:43 08:42:29 34° 293° (WNW) 08:47:13 437.470
NOAA 15 30 Jul 08:47:03 08:51:03 22° 297° (WNW) 08:55:03 137.62
BRITE-PL 30 Jul 08:51:17 08:53:47 14° 298° (WNW) 08:56:23 437.365/2234.400
CINEMA 3 30 Jul 08:55:43 09:00:43 59° 100° (E) 09:05:36 145.822/145.860
AAUSAT CUBESAT 2 30 Jul 08:55:51 08:58:35 17° 92° (E) 09:01:17 437.432
SO-50 30 Jul 09:03:16 09:07:45 36° 313° (NW) 09:12:13 436.795
DOVE 4 30 Jul 09:09:36 09:14:18 36° 291° (WNW) 09:19:06 437.250
UWE-3 30 Jul 09:11:12 09:14:13 17° 91° (E) 09:17:09 435.000/436.395/437.385
ANTELSAT 30 Jul 09:12:12 09:13:51 12° 59° (ENE) 09:15:31 437.575/2403.000
HO-68 30 Jul 09:12:16 09:19:27 64° 103° (ESE) 09:26:33 435.675
CANX-2 30 Jul 09:14:46 09:19:00 84° 103° (ESE) 09:23:12 2200.000
CUTE 1.7 + AOD 2 30 Jul 09:27:30 09:31:44 81° 283° (WNW) 09:35:56 437.475
PRISM 30 Jul 09:33:23 09:37:12 39° 261° (W) 09:41:03 437.425
GOMX 1 30 Jul 09:36:23 09:38:15 12° 300° (WNW) 09:40:08 467.674
Cosmos 2504 30 Jul 09:37:13 09:42:59 20° 77° (ENE) 09:48:42 435.465 / 435.565
Oscar 11 30 Jul 09:38:16 09:41:32 21° 93° (E) 09:44:46 145.826/435.025
CUBEBUG 2 30 Jul 09:39:38 09:44:13 50° 99° (E) 09:48:38 437.445
NOAA 18 30 Jul 09:45:33 09:47:25 12° 306° (NW) 09:49:16 137.9125
TIGRISAT 30 Jul 09:50:15 09:54:05 26° 66° (ENE) 09:57:56 435.000
SEEDS 30 Jul 10:00:21 10:04:23 48° 287° (WNW) 10:08:22 437.485
YUBILEINY 30 Jul 10:03:09 10:11:54 78° 94° (E) 10:20:45 435.215
COMPASS 1 30 Jul 10:05:26 10:09:31 61° 286° (WNW) 10:13:34 437.405
UNISAT 6 30 Jul 10:07:13 10:11:33 39° 70° (ENE) 10:15:56 437.425
RS-15 30 Jul 10:21:06 10:31:12 31° 339° (NNW) 10:41:41 29.354- 29.394
DELFI C3 30 Jul 10:23:30 10:26:52 26° 95° (E) 10:30:13 145.870
AUBIESAT-1 30 Jul 10:24:19 10:26:24 13° 94° (E) 10:28:29 437.475
AAUSAT CUBESAT 2 30 Jul 10:30:22 10:34:14 40° 289° (WNW) 10:38:04 437.432
Cosmos 2491 30 Jul 10:33:09 10:40:36 33° 277° (W) 10:48:03 435.465 / 435.565
CINEMA 3 30 Jul 10:33:57 10:37:21 19° 297° (WNW) 10:40:43 145.822/145.860
NANOSAT C BR1 30 Jul 10:34:57 10:36:25 12° 61° (ENE) 10:37:54 145.865
FUNcube-1 30 Jul 10:35:55 10:40:24 82° 102° (ESE) 10:44:45 145.935
DUCHIFAT 1 30 Jul 10:37:29 10:38:56 12° 61° (ENE) 10:40:22 145.980
ZACube-1 30 Jul 10:38:52 10:43:23 87° 284° (WNW) 10:47:45 437.345
ANTELSAT 30 Jul 10:45:09 10:49:49 87° 258° (WSW) 10:54:34 437.575/2403.000
UWE-3 30 Jul 10:46:31 10:50:57 48° 288° (WNW) 10:55:15 435.000/436.395/437.385
QB50P1 30 Jul 10:57:31 11:00:43 21° 66° (ENE) 11:03:56 145.935-145.965
HO-68 30 Jul 11:00:47 11:06:39 28° 302° (WNW) 11:12:29 435.675
POPSAT HIP 1 30 Jul 11:04:04 11:07:29 24° 67° (ENE) 11:10:55 437.405
Oscar 11 30 Jul 11:13:49 11:17:46 36° 290° (WNW) 11:21:41 145.826/435.025
CUBEBUG 2 30 Jul 11:17:09 11:20:25 19° 296° (WNW) 11:23:37 437.445
HUMSAT D 30 Jul 11:22:11 11:26:20 60° 101° (E) 11:30:23 437.325/437.525
ESTCUBE 1 30 Jul 11:23:24 11:24:06 10° 88° (E) 11:24:48 437.505/2401.250
QB50P2 30 Jul 11:25:13 11:29:14 42° 71° (ENE) 11:33:18 145.880/145.840
Cosmos 2504 30 Jul 11:26:15 11:35:10 89° 97° (E) 11:44:00 435.465 / 435.565
TIGRISAT 30 Jul 11:26:19 11:30:34 35° 263° (W) 11:34:55 435.000
POLYITAN 1 30 Jul 11:27:50 11:31:52 43° 71° (ENE) 11:35:57 437.675
M-CUBED/EXP-1 PRIME 30 Jul 11:33:37 11:38:22 80° 108° (ESE) 11:43:03 437.505
JAS-2 30 Jul 11:34:10 11:38:26 22° 64° (ENE) 11:42:27 435.910
UNISAT 6 30 Jul 11:44:42 11:48:22 23° 267° (W) 11:52:05 437.425
AUBIESAT-1 30 Jul 11:56:39 12:01:19 74° 290° (WNW) 12:05:53 437.475
DELFI C3 30 Jul 11:58:26 12:01:37 24° 292° (WNW) 12:04:48 145.870
YUBILEINY 30 Jul 12:02:50 12:09:41 25° 296° (WNW) 12:16:38 435.215
NANOSAT C BR1 30 Jul 12:07:19 12:11:32 74° 257° (WSW) 12:15:49 145.865
AISAT 30 Jul 12:07:47 12:11:01 19° 93° (E) 12:14:15 437.250
BUGSAT 1 30 Jul 12:09:26 12:13:22 47° 72° (ENE) 12:17:24 437.445
DUCHIFAT 1 30 Jul 12:09:47 12:14:00 74° 258° (WSW) 12:18:17 145.980
FUNcube-1 30 Jul 12:14:35 12:15:56 11° 300° (WNW) 12:17:16 145.935
50 SAT 30 Jul 12:21:28 12:24:24 23° 95° (E) 12:27:18 437.505
SPROUT 30 Jul 12:28:17 12:30:40 14° 91° (E) 12:33:02 437.525
QB50P1 30 Jul 12:32:19 12:36:15 37° 263° (W) 12:40:14 145.935-145.965
RS-15 30 Jul 12:38:54 12:48:57 28° 15° (NNE) 12:59:06 29.354- 29.394
POPSAT HIP 1 30 Jul 12:39:18 12:43:06 32° 263° (W) 12:46:58 437.405
CUBEBUG 1 30 Jul 12:49:31 12:53:53 59° 101° (E) 12:58:14 437.445
Oscar 19 30 Jul 12:52:50 12:57:09 28° 65° (ENE) 13:01:29 437.125/150
AIST 1 30 Jul 12:54:31 12:58:06 27° 90° (E) 13:01:43
ESTCUBE 1 30 Jul 12:56:57 13:01:27 78° 284° (WNW) 13:05:55 437.505/2401.250
AO-85 30 Jul 12:57:40 13:02:27 33° 115° (ESE) 13:07:04 145.980
VELOX 1 30 Jul 12:57:58 13:02:24 62° 101° (E) 13:06:48 145.980
HUMSAT D 30 Jul 12:59:28 13:01:26 13° 298° (WNW) 13:03:24 437.325/437.525
QB50P2 30 Jul 13:02:21 13:05:14 18° 268° (W) 13:08:08 145.880/145.840
Gurwin Techsat 1B 30 Jul 13:04:09 13:07:37 18° 60° (ENE) 13:11:05 435.225
POLYITAN 1 30 Jul 13:05:01 13:07:52 17° 268° (W) 13:10:45 437.675
M-CUBED/EXP-1 PRIME 30 Jul 13:09:42 13:12:14 15° 305° (NW) 13:14:48 437.505
JAS-2 30 Jul 13:17:30 13:23:15 53° 259° (W) 13:28:31 435.910
Cosmos 2504 30 Jul 13:23:15 13:29:43 22° 298° (WNW) 13:36:08 435.465 / 435.565
DX 1 30 Jul 13:29:53 13:34:16 83° 285° (WNW) 13:38:39 434.975-435.025
AUBIESAT-1 30 Jul 13:34:04 13:34:55 10° 308° (NW) 13:35:46 437.475
UKube-1 30 Jul 13:36:30 13:40:51 89° 294° (WNW) 13:45:12 .
AISAT 30 Jul 13:43:27 13:47:40 42° 289° (WNW) 13:51:52 437.250
BUGSAT 1 30 Jul 13:46:41 13:49:02 15° 269° (W) 13:51:24 437.445
50 SAT 30 Jul 13:55:05 13:57:56 22° 292° (WNW) 14:00:46 437.505
SPROUT 30 Jul 14:02:42 14:06:56 53° 287° (WNW) 14:11:07 437.525
GONETS M04 30 Jul 14:14:53 14:21:09 23° 79° (E) 14:27:27
Cosmos 2499 30 Jul 14:18:59 14:24:15 18° 77° (ENE) 14:29:24 435.465 / 435.565
CUBEBUG 1 30 Jul 14:27:13 14:29:42 15° 298° (WNW) 14:32:10 437.445
Oscar 19 30 Jul 14:31:36 14:36:19 37° 263° (W) 14:41:06 437.125/150
AIST 1 30 Jul 14:32:08 14:35:39 25° 287° (WNW) 14:39:12
ITAMSAT 1 30 Jul 14:34:46 14:39:33 38° 68° (ENE) 14:44:21 435.822/435.867
VELOX 1 30 Jul 14:35:55 14:38:22 15° 298° (WNW) 14:40:48 145.980
AO-85 30 Jul 14:37:52 14:42:53 40° 311° (NW) 14:47:40 145.980
Gurwin Techsat 1B 30 Jul 14:41:43 14:47:01 68° 258° (WSW) 14:52:21 435.225
AO-7 30 Jul 14:42:21 14:49:45 37° 58° (ENE) 14:57:09 29.400- 29.500
TISAT 1 30 Jul 14:44:19 14:48:36 79° 284° (WNW) 14:52:50 437.305
RS-15 30 Jul 14:52:48 15:04:58 57° 46° (NE) 15:16:59 29.354- 29.394
SWISSCUBE 30 Jul 14:55:27 14:59:32 28° 96° (E) 15:03:35 437.505
CUSAT 1 30 Jul 15:15:51 15:18:55 42° 262° (W) 15:22:45 437.405
BEESAT 30 Jul 15:16:06 15:20:36 40° 99° (E) 15:25:03 436.000
ITUPSAT 1 30 Jul 15:41:36 15:46:23 71° 103° (ESE) 15:51:07 437.325
SO-50 30 Jul 15:53:17 15:57:39 38° 48° (NE) 16:01:54 436.795
KKS-1 30 Jul 15:59:49 16:01:58 13° 90° (E) 16:04:07 437.445
Cosmos 2499 30 Jul 16:07:13 16:16:07 83° 95° (E) 16:24:43 435.465 / 435.565
GONETS M04 30 Jul 16:08:17 16:16:58 78° 280° (W) 16:25:45
ITAMSAT 1 30 Jul 16:14:36 16:19:05 28° 265° (W) 16:23:35 435.822/435.867
DANDE 30 Jul 16:15:18 16:17:27 21° 264° (W) 16:19:51 436.750
HORYU 2 30 Jul 16:21:48 16:25:17 23° 65° (ENE) 16:28:47 437.375
AO-85 30 Jul 16:23:56 16:24:40 10° 332° (NNW) 16:25:23 145.980
PHONESAT 2.4 30 Jul 16:25:12 16:27:52 27° 161° (SSE) 16:30:33 2401.200-2431.200
STARS 30 Jul 16:28:05 16:30:09 13° 90° (E) 16:32:12 437.465
SWISSCUBE 30 Jul 16:33:06 16:37:20 33° 292° (WNW) 16:41:32 437.505
AO-7 30 Jul 16:34:00 16:42:10 57° 257° (WSW) 16:50:25 29.400- 29.500
NOAA 15 30 Jul 16:51:20 16:53:43 13° 57° (ENE) 16:56:05 137.62
BEESAT 30 Jul 16:54:23 16:58:09 24° 295° (WNW) 17:01:53 436.000
MOZHAYETS 4 30 Jul 17:00:12 17:04:46 65° 101° (ESE) 17:09:16
RS-15 30 Jul 17:05:47 17:17:25 51° 250° (WSW) 17:28:54 29.354- 29.394
ITUPSAT 1 30 Jul 17:21:06 17:23:38 14° 300° (WNW) 17:26:10 437.325
GOMX 1 30 Jul 17:30:16 17:32:04 12° 60° (ENE) 17:33:56 467.674
SO-50 30 Jul 17:34:06 17:37:57 27° 247° (WSW) 17:41:43 436.795
KKS-1 30 Jul 17:34:30 17:38:57 62° 287° (WNW) 17:43:21 437.445
LilacSat-2 30 Jul 17:35:34 17:37:54 16° 65° (ENE) 17:40:16 437.200
BEESAT 3 30 Jul 17:42:02 17:45:30 31° 116° (ESE) 17:49:01 437.485
NOAA 18 30 Jul 17:49:41 17:54:37 34° 65° (ENE) 17:59:33 137.9125
BEESAT 2 30 Jul 17:56:23 17:59:34 24° 114° (ESE) 18:02:46 435.950
HORYU 2 30 Jul 17:57:26 18:01:37 38° 262° (W) 18:05:50 437.375
Cubesat XI-IV 30 Jul 17:58:13 18:03:09 38° 68° (ENE) 18:08:05 437.490
HO-68 30 Jul 18:00:31 18:02:19 11° 46° (NE) 18:04:07 435.675
PHONESAT 2.4 30 Jul 18:01:04 18:04:05 52° 178° (S) 18:07:06 2401.200-2431.200
STARS 30 Jul 18:02:30 18:06:55 62° 287° (WNW) 18:11:17 437.465
Cosmos 2499 30 Jul 18:03:33 18:10:13 23° 296° (WNW) 18:16:44 435.465 / 435.565
GONETS M04 30 Jul 18:10:13 18:15:26 17° 302° (WNW) 18:20:42
CUTE-I 30 Jul 18:20:11 18:25:27 59° 71° (ENE) 18:30:44 437.470
BRITE-PL 30 Jul 18:23:28 18:27:36 83° 257° (WSW) 18:31:51 437.365/2234.400
NOAA 15 30 Jul 18:27:28 18:32:43 89° 75° (ENE) 18:38:00 137.62
CUBESAT XI-V 30 Jul 18:30:02 18:34:40 70° 102° (ESE) 18:39:17 437.345
DOVE 4 30 Jul 18:38:51 18:42:38 29° 67° (ENE) 18:46:39 437.250
MOZHAYETS 4 30 Jul 18:38:55 18:41:23 15° 298° (WNW) 18:43:51
PCSat 30 Jul 19:02:23 19:07:43 62° 116° (ESE) 19:13:05 145.827
GOMX 1 30 Jul 19:05:21 19:09:32 68° 259° (W) 19:13:58 467.674
LilacSat-2 30 Jul 19:08:10 19:11:52 42° 262° (W) 19:15:36 437.200
SEEDS 30 Jul 19:19:32 19:21:24 13° 62° (ENE) 19:23:14 437.485
BEESAT 3 30 Jul 19:19:49 19:23:11 26° 313° (NW) 19:26:34 437.485
NOAA 18 30 Jul 19:30:09 19:35:12 35° 263° (W) 19:40:17 137.9125
BEESAT 2 30 Jul 19:33:37 19:37:14 33° 311° (NW) 19:40:54 435.950
PHONESAT 2.4 30 Jul 19:37:29 19:40:22 36° 194° (SSW) 19:43:14 2401.200-2431.200
O/OREOS (USA 219) 30 Jul 19:37:58 19:41:18 21° 101° (ESE) 19:44:37 437.305
Cubesat XI-IV 30 Jul 19:38:36 19:43:15 30° 265° (W) 19:47:57 437.490
HO-68 30 Jul 19:41:31 19:48:25 52° 66° (ENE) 19:55:20 435.675
AAUSAT CUBESAT 2 30 Jul 19:47:46 19:49:56 14° 63° (ENE) 19:52:06 437.432
Cosmos 2491 30 Jul 19:49:08 19:51:12 11° 71° (ENE) 19:53:16 435.465 / 435.565
STRAND 1 30 Jul 19:57:30 20:02:07 33° 97° (E) 20:06:41 437.568
CINEMA 3 30 Jul 19:57:51 20:02:21 57° 73° (ENE) 20:07:06 145.822/145.860
CUTE-I 30 Jul 20:02:10 20:05:53 19° 268° (W) 20:09:37 437.470
CANX-2 30 Jul 20:07:59 20:12:13 65° 75° (ENE) 20:16:27 2200.000
UWE-3 30 Jul 20:09:07 20:12:08 17° 63° (ENE) 20:15:11 435.000/436.395/437.385
CUBESAT XI-V 30 Jul 20:09:10 20:11:28 14° 299° (WNW) 20:13:47 437.345
NOAA 15 30 Jul 20:11:37 20:13:11 11° 272° (W) 20:14:45 137.62
YUBILEINY 30 Jul 20:12:28 20:20:42 41° 71° (ENE) 20:28:50 435.215
DOVE 4 30 Jul 20:16:35 20:20:19 27° 266° (W) 20:24:16 437.250
CUTE 1.7 + AOD 2 30 Jul 20:20:33 20:24:50 79° 75° (ENE) 20:29:06 437.475
AIST 2 30 Jul 20:29:44 20:33:41 48° 118° (ESE) 20:37:41 435.215
Oscar 11 30 Jul 20:34:11 20:37:16 19° 65° (ENE) 20:40:21 145.826/435.025
CUBEBUG 2 30 Jul 20:38:02 20:42:28 46° 71° (ENE) 20:47:01 437.445
ISS 30 Jul 20:42:29 20:45:42 65° 144° (SE) 20:48:56 145.825
PCSat 30 Jul 20:47:12 20:51:33 24° 316° (NW) 20:55:55 145.827
M-CUBED/EXP-1 PRIME 30 Jul 20:49:13 20:50:58 12° 54° (NE) 20:52:45 437.505
SEEDS 30 Jul 20:52:22 20:56:34 65° 259° (W) 21:00:46 437.485
COMPASS 1 30 Jul 20:56:31 21:00:42 83° 257° (WSW) 21:04:53 437.405
AUBIESAT-1 30 Jul 21:10:41 21:13:20 17° 57° (ENE) 21:16:06 437.475
DELFI C3 30 Jul 21:10:48 21:13:35 19° 66° (ENE) 21:16:23 145.870
PRISM 30 Jul 21:14:04 21:17:25 24° 95° (E) 21:20:44 437.425
PHONESAT 2.4 30 Jul 21:15:05 21:16:21 12° 209° (SSW) 21:17:36 2401.200-2431.200
O/OREOS (USA 219) 30 Jul 21:16:13 21:20:25 39° 299° (WNW) 21:24:38 437.305
Cosmos 2504 30 Jul 21:19:11 21:26:24 34° 69° (ENE) 21:33:09 435.465 / 435.565
AAUSAT CUBESAT 2 30 Jul 21:20:54 21:24:58 55° 260° (W) 21:29:03 437.432
AO-85 30 Jul 21:28:49 21:32:52 32° 46° (NE) 21:36:36 145.980
HO-68 30 Jul 21:30:05 21:36:21 32° 265° (W) 21:42:42 435.675
FUNcube-1 30 Jul 21:31:34 21:36:05 70° 75° (ENE) 21:40:40 145.935
ZACube-1 30 Jul 21:34:47 21:39:20 80° 76° (ENE) 21:43:58 437.345
STRAND 1 30 Jul 21:36:46 21:41:14 31° 294° (WNW) 21:45:40 437.568
CINEMA 3 30 Jul 21:37:08 21:39:55 16° 271° (W) 21:42:46 145.822/145.860
Cosmos 2491 30 Jul 21:37:36 21:46:08 64° 92° (E) 21:54:41 435.465 / 435.565
UWE-3 30 Jul 21:43:36 21:48:08 55° 261° (W) 21:52:45 435.000/436.395/437.385
CANX-2 30 Jul 21:47:06 21:48:29 11° 271° (W) 21:49:53 2200.000
Oscar 11 30 Jul 22:08:58 22:13:06 42° 262° (W) 22:17:15 145.826/435.025
AIST 2 30 Jul 22:09:15 22:12:24 21° 317° (NW) 22:15:35 435.215
YUBILEINY 30 Jul 22:09:18 22:17:36 47° 272° (W) 22:25:50 435.215
HUMSAT D 30 Jul 22:13:52 22:17:59 46° 72° (ENE) 22:22:07 437.325/437.525
CUBEBUG 2 30 Jul 22:15:58 22:19:19 19° 269° (W) 22:22:44 437.445
ISS 30 Jul 22:19:32 22:22:21 26° 342° (NNW) 22:25:10 145.825
M-CUBED/EXP-1 PRIME 30 Jul 22:20:56 22:24:48 72° 254° (WSW) 22:29:03 437.505
ESTCUBE 1 30 Jul 22:23:34 22:25:20 12° 60° (ENE) 22:27:06 437.505/2401.250
ANTELSAT 30 Jul 22:37:05 22:40:20 19° 92° (E) 22:43:31 437.575/2403.000
AUBIESAT-1 30 Jul 22:43:34 22:47:21 49° 256° (WSW) 22:51:29 437.475
DELFI C3 30 Jul 22:44:32 22:48:12 35° 263° (W) 22:51:52 145.870
PRISM 30 Jul 22:49:09 22:52:42 29° 292° (WNW) 22:56:16 437.425
DX 1 30 Jul 22:54:05 22:54:47 10° 59° (ENE) 22:55:29 434.975-435.025
50 SAT 30 Jul 23:01:00 23:02:51 14° 65° (ENE) 23:04:42 437.505
AISAT 30 Jul 23:06:17 23:09:28 20° 64° (ENE) 23:12:41 437.250
AO-85 30 Jul 23:09:31 23:13:11 27° 247° (WSW) 23:16:38 145.980
FUNcube-1 30 Jul 23:10:58 23:12:48 12° 272° (W) 23:14:39 145.935
Cosmos 2504 30 Jul 23:12:24 23:20:03 49° 271° (W) 23:27:10 435.465 / 435.565
ZACube-1 30 Jul 23:15:18 23:16:11 10° 273° (W) 23:17:05 437.345
TIGRISAT 30 Jul 23:16:40 23:21:06 45° 98° (E) 23:25:25 435.000
SPROUT 30 Jul 23:23:24 23:25:30 13° 62° (ENE) 23:27:35 437.525
UNISAT 6 30 Jul 23:34:22 23:39:00 75° 103° (ESE) 23:43:28 437.425
Cosmos 2491 30 Jul 23:36:12 23:43:34 30° 293° (WNW) 23:51:00 435.465 / 435.565
CUBEBUG 1 30 Jul 23:46:09 23:50:21 54° 73° (ENE) 23:54:36 437.445
HUMSAT D 30 Jul 23:51:07 23:53:50 16° 268° (W) 23:56:34 437.325/437.525
NANOSAT C BR1 30 Jul 23:51:52 23:54:38 17° 92° (E) 23:57:23 145.865
DUCHIFAT 1 30 Jul 23:54:06 23:56:49 16° 92° (E) 23:59:32 145.980
VELOX 1 30 Jul 23:55:55 00:00:13 61° 73° (ENE) 00:04:35 145.980
ESTCUBE 1 30 Jul 23:57:02 00:01:31 77° 257° (WSW) 00:06:02 437.505/2401.250
ISS 30 Jul 23:57:14 23:59:33 18° 2° (N) 00:01:53 145.825
ANTELSAT 31 Jul 00:12:53 00:17:16 44° 289° (WNW) 00:21:33 437.575/2403.000
QB50P1 31 Jul 00:15:57 00:19:50 32° 97° (E) 00:23:39 145.935-145.965
POPSAT HIP 1 31 Jul 00:22:44 00:26:44 37° 97° (E) 00:30:42 437.405
GONETS M04 31 Jul 00:24:03 00:26:53 12° 52° (NE) 00:29:42
JAS-2 31 Jul 00:25:40 00:29:01 16° 92° (E) 00:32:30 435.910
DX 1 31 Jul 00:25:57 00:30:16 86° 252° (WSW) 00:34:39 434.975-435.025
UKube-1 31 Jul 00:31:34 00:35:51 86° 78° (ENE) 00:40:12 .
50 SAT 31 Jul 00:32:38 00:36:07 43° 261° (W) 00:39:37 437.505
AIST 1 31 Jul 00:36:59 00:41:22 85° 85° (E) 00:45:45
AISAT 31 Jul 00:41:31 00:45:39 41° 261° (W) 00:49:51 437.250
QB50P2 31 Jul 00:44:35 00:48:53 71° 102° (ESE) 00:53:08 145.880/145.840
POLYITAN 1 31 Jul 00:47:13 00:51:31 72° 101° (E) 00:55:47 437.675
TIGRISAT 31 Jul 00:54:08 00:57:26 20° 296° (WNW) 01:00:41 435.000
SPROUT 31 Jul 00:56:41 01:00:55 63° 259° (W) 01:05:12 437.525
UNISAT 6 31 Jul 01:12:58 01:15:03 13° 300° (WNW) 01:17:06 437.425
ITUPSAT 1 31 Jul 01:15:00 01:16:42 12° 58° (ENE) 01:18:24 437.325
CUBEBUG 1 31 Jul 01:24:41 01:26:59 14° 269° (W) 01:29:17 437.445
BUGSAT 1 31 Jul 01:25:15 01:29:32 74° 102° (ESE) 01:33:46 437.445
NANOSAT C BR1 31 Jul 01:26:31 01:30:36 44° 288° (WNW) 01:34:38 145.865
DUCHIFAT 1 31 Jul 01:28:40 01:32:45 45° 288° (WNW) 01:36:47 145.980
ISS 31 Jul 01:33:41 01:36:42 32° 22° (NNE) 01:39:40 145.825
VELOX 1 31 Jul 01:35:04 01:37:05 13° 270° (W) 01:39:08 145.980
TISAT 1 31 Jul 01:36:25 01:40:37 85° 77° (ENE) 01:44:53 437.305
QB50P1 31 Jul 01:51:59 01:55:26 24° 293° (WNW) 01:58:52 145.935-145.965
BEESAT 3 31 Jul 01:58:09 02:01:35 27° 47° (NE) 02:05:01 437.485
Cosmos 2499 31 Jul 01:58:55 02:05:33 30° 67° (ENE) 02:11:47 435.465 / 435.565
POPSAT HIP 1 31 Jul 01:59:03 02:02:17 21° 294° (WNW) 02:05:30 437.405
SWISSCUBE 31 Jul 02:02:36 02:06:58 36° 69° (ENE) 02:11:21 437.505
PCSat 31 Jul 02:07:33 02:10:09 13° 35° (NE) 02:12:43 145.827
JAS-2 31 Jul 02:09:10 02:14:31 69° 287° (WNW) 02:20:23 435.910
BEESAT 2 31 Jul 02:13:03 02:16:16 23° 45° (NE) 02:19:28 435.950
GONETS M04 31 Jul 02:17:21 02:26:01 57° 76° (ENE) 02:34:41
QB50P2 31 Jul 02:22:25 02:24:06 12° 299° (WNW) 02:25:48 145.880/145.840
BEESAT 31 Jul 02:23:09 02:27:46 52° 72° (ENE) 02:32:26 436.000
POLYITAN 1 31 Jul 02:25:06 02:26:44 12° 299° (WNW) 02:28:21 437.675
